Location: Newark
(45.6000°N, 12.8833°E)
Time: 10:16:05
(UTC+00:00)

Tiros 1 despin weight - All Passes

Search period start: 12 November 2019 00:00
Search period end: 22 November 2019 00:00
Orbit: 594 x 642 km, 48.2° (Epoch: 11 November)

Date Brightness Start Highest point End Pass type
(mag) Time Alt. Az. Time Alt. Az. Time Alt. Az.
12 Nov - 14:04:30 10° S 14:07:52 21° SE 14:11:17 10° E daylight
12 Nov - 15:44:30 10° WSW 15:48:56 76° SSE 15:53:27 10° ENE daylight
12 Nov - 17:26:11 10° W 17:30:39 62° N 17:35:10 10° ENE visible
12 Nov - 19:07:54 10° WNW 19:12:28 84° NNE 19:17:05 10° ESE visible
12 Nov - 20:49:40 10° W 20:53:48 34° SW 20:57:58 10° SSE night (unlit)
13 Nov - 14:20:06 10° SSW 14:24:10 36° SE 14:28:17 10° E daylight
13 Nov - 16:01:03 10° WSW 16:05:31 79° NNW 16:10:04 10° ENE daylight
13 Nov - 17:42:53 10° WNW 17:47:21 63° N 17:51:54 10° E visible
13 Nov - 19:24:30 10° WNW 19:29:02 71° SSW 19:33:38 10° ESE visible
13 Nov - 21:06:45 10° W 21:10:06 20° SW 21:13:27 10° S night (unlit)
14 Nov - 12:57:09 10° S 12:59:43 15° SE 13:02:17 10° E daylight
14 Nov - 14:36:14 10° SW 14:40:35 60° SSE 14:45:02 10° ENE daylight
14 Nov - 16:17:44 10° W 16:22:11 65° N 16:26:43 10° ENE visible
14 Nov - 17:59:31 10° WNW 18:04:02 73° NNE 18:08:37 10° E visible
14 Nov - 19:41:11 10° WNW 19:45:31 45° SSW 19:49:55 10° SE visible
14 Nov - 21:25:15 10° WSW 21:26:16 11° SW 21:27:16 10° SW night (unlit)
15 Nov - 13:12:14 10° SSW 13:15:56 27° SE 13:19:42 10° E daylight
15 Nov - 14:52:40 10° WSW 14:57:07 87° SSE 15:01:39 10° ENE daylight
15 Nov - 16:34:28 10° W 16:38:53 61° N 16:43:24 10° E visible
15 Nov - 18:16:08 10° WNW 18:20:39 86° SSW 18:25:15 10° ESE visible
15 Nov - 19:58:02 10° W 20:01:52 27° SW 20:05:45 10° SSE visible
16 Nov - 11:51:07 10° SE 11:51:36 10° SE 11:52:04 10° SE daylight
16 Nov - 13:28:04 10° SW 13:32:17 45° SSE 13:36:33 10° ENE daylight
16 Nov - 15:09:18 10° W 15:13:45 72° NNW 15:18:15 10° ENE daylight
16 Nov - 16:51:07 10° WNW 16:55:35 66° N 17:00:07 10° E visible
16 Nov - 18:32:45 10° WNW 18:37:12 59° SSW 18:41:42 10° SE visible
16 Nov - 20:15:26 10° W 20:18:07 16° SW 20:20:49 10° S visible
17 Nov - 12:04:35 10° S 12:07:45 19° SE 12:10:56 10° E daylight
17 Nov - 13:44:22 10° WSW 13:48:45 71° SSE 13:53:13 10° ENE daylight
17 Nov - 15:26:00 10° W 15:30:26 62° N 15:34:55 10° ENE daylight
17 Nov - 17:07:45 10° WNW 17:12:15 80° NNE 17:16:49 10° ESE visible
17 Nov - 18:49:28 10° W 18:53:37 36° SW 18:57:49 10° SSE visible
18 Nov - 12:20:04 10° SSW 12:24:02 33° SE 12:28:01 10° E daylight
18 Nov - 14:00:53 10° WSW 14:05:20 82° NNW 14:09:50 10° ENE daylight
18 Nov - 15:42:43 10° WNW 15:47:08 62° N 15:51:37 10° E daylight
18 Nov - 17:24:21 10° WNW 17:28:50 75° SSW 17:33:23 10° ESE visible
18 Nov - 19:06:29 10° W 19:09:56 21° SW 19:13:24 10° S visible
19 Nov - 10:57:23 10° SSE 10:59:35 14° SE 11:01:49 10° ESE daylight
19 Nov - 12:36:07 10° SW 12:40:25 55° SSE 12:44:47 10° ENE daylight
19 Nov - 14:17:34 10° W 14:21:59 67° N 14:26:27 10° ENE daylight
19 Nov - 15:59:22 10° WNW 16:03:49 71° N 16:08:20 10° E visible
19 Nov - 17:41:00 10° WNW 17:45:20 48° SSW 17:49:43 10° SE visible
19 Nov - 19:24:32 10° WSW 19:26:07 12° SW 19:27:42 10° SSW visible
20 Nov - 11:12:13 10° SSW 11:15:48 25° SE 11:19:24 10° E daylight
20 Nov - 12:52:31 10° WSW 12:56:57 83° SSE 13:01:25 10° ENE daylight
20 Nov - 14:34:17 10° W 14:38:40 61° N 14:43:08 10° E daylight
20 Nov - 16:15:58 10° WNW 16:20:27 90° NNE 16:24:59 10° ESE visible
20 Nov - 17:57:49 10° W 18:01:42 29° SW 18:05:37 10° SSE visible
21 Nov - 11:27:59 10° SW 11:32:08 41° SSE 11:36:18 10° ENE daylight
21 Nov - 13:09:08 10° W 13:13:33 74° NNW 13:18:01 10° ENE daylight
21 Nov - 14:50:57 10° WNW 14:55:23 64° N 14:59:51 10° E daylight
21 Nov - 16:32:34 10° WNW 16:37:00 63° SSW 16:41:28 10° SE visible
21 Nov - 18:15:05 10° W 18:17:57 17° SW 18:20:51 10° S visible
